Meteo pe oră la

Astăzi, 20 Ianuarie, Miercuri

Timp Temperatura Precipitaţii Vânt Presiune Umiditate
00:00 +9°C° 0 mm 2 m/s 561 mmHg 86%
01:00 +9°C° 0 mm 2 m/s 561 mmHg 87%
02:00 +8°C° 0 mm 2 m/s 561 mmHg 89%
03:00 +8°C° 0 mm 2 m/s 561 mmHg 90%
04:00 +8°C° 0 mm 2 m/s 561 mmHg 91%
05:00 +8°C° 0 mm 2 m/s 561 mmHg 92%
06:00 +9°C° 0 mm 2 m/s 562 mmHg 88%
07:00 +10°C° 0 mm 2 m/s 563 mmHg 83%
08:00 +12°C° 0 mm 2 m/s 563 mmHg 79%
09:00 +12°C° 0 mm 3 m/s 564 mmHg 74%
10:00 +13°C° 0 mm 3 m/s 564 mmHg 69%
11:00 +16°C° 0 mm 3 m/s 565 mmHg 63%
12:00 +16°C° 0 mm 3 m/s 564 mmHg 61%
13:00 +16°C° 0 mm 3 m/s 564 mmHg 60%
14:00 +17°C° 0 mm 3 m/s 563 mmHg 58%
15:00 +16°C° 0 mm 3 m/s 563 mmHg 63%
16:00 +14°C° 0 mm 3 m/s 563 mmHg 68%
17:00 +13°C° 0 mm 3 m/s 562 mmHg 73%
18:00 +12°C° 0 mm 3 m/s 562 mmHg 76%
19:00 +11°C° 0 mm 3 m/s 563 mmHg 80%
20:00 +12°C° 0 mm 2 m/s 563 mmHg 84%
21:00 +10°C° 0 mm 2 m/s 562 mmHg 85%
22:00 +10°C° 0 mm 2 m/s 562 mmHg 87%
23:00 +10°C° 0 mm 1 m/s 562 mmHg 89%

Mâine, 21 Ianuarie, Joi

Timp Temperatura Precipitaţii Vânt Presiune Umiditate
00:00 +9°C° 0 mm 1 m/s 561 mmHg 88%
01:00 +9°C° 0 mm 1 m/s 561 mmHg 87%
02:00 +9°C° 0 mm 1 m/s 560 mmHg 86%
03:00 +8°C° 0 mm 1 m/s 560 mmHg 83%
04:00 +8°C° 0 mm 1 m/s 560 mmHg 80%
05:00 +7°C° 0 mm 1 m/s 560 mmHg 77%
06:00 +9°C° 0 mm 1 m/s 561 mmHg 70%
07:00 +11°C° 0 mm 1 m/s 562 mmHg 63%
08:00 +12°C° 0 mm 1 m/s 563 mmHg 56%
09:00 +14°C° 0 mm 1 m/s 564 mmHg 50%
10:00 +16°C° 0 mm 1 m/s 564 mmHg 44%
11:00 +18°C° 0 mm 2 m/s 565 mmHg 38%
12:00 +19°C° 0 mm 2 m/s 565 mmHg 36%
13:00 +19°C° 0 mm 2 m/s 564 mmHg 34%
14:00 +20°C° 0 mm 3 m/s 564 mmHg 32%
15:00 +19°C° 0 mm 3 m/s 563 mmHg 38%
16:00 +17°C° 0 mm 3 m/s 562 mmHg 44%
17:00 +16°C° 0 mm 3 m/s 561 mmHg 49%
18:00 +15°C° 0 mm 2 m/s 561 mmHg 55%
19:00 +13°C° 0 mm 2 m/s 560 mmHg 60%
20:00 +12°C° 0 mm 1 m/s 560 mmHg 65%
21:00 +11°C° 0 mm 1 m/s 560 mmHg 66%
22:00 +11°C° 0 mm 1 m/s 559 mmHg 66%
23:00 +11°C° 0 mm 1 m/s 559 mmHg 67%

Poimâine, 22 Ianuarie, Vineri

Timp Temperatura Precipitaţii Vânt Presiune Umiditate
00:00 +10°C° 0 mm 1 m/s 559 mmHg 67%
01:00 +10°C° 0 mm 1 m/s 558 mmHg 67%
02:00 +10°C° 0 mm 1 m/s 558 mmHg 67%
03:00 +9°C° 0 mm 1 m/s 558 mmHg 65%
04:00 +9°C° 0 mm 1 m/s 558 mmHg 64%
05:00 +9°C° 0 mm 1 m/s 558 mmHg 62%
06:00 +11°C° 0 mm 1 m/s 559 mmHg 56%
07:00 +13°C° 0 mm 1 m/s 561 mmHg 50%
08:00 +15°C° 0 mm 1 m/s 562 mmHg 44%
09:00 +18°C° 0 mm 1 m/s 563 mmHg 40%
10:00 +18°C° 0 mm 2 m/s 563 mmHg 36%
11:00 +20°C° 0 mm 2 m/s 564 mmHg 32%
12:00 +20°C° 0 mm 2 m/s 564 mmHg 31%
13:00 +21°C° 0 mm 2 m/s 563 mmHg 30%
14:00 +21°C° 0 mm 2 m/s 563 mmHg 30%
15:00 +20°C° 0 mm 2 m/s 562 mmHg 37%
16:00 +19°C° 0 mm 2 m/s 561 mmHg 44%
17:00 +17°C° 0 mm 3 m/s 561 mmHg 51%
18:00 +16°C° 0 mm 2 m/s 560 mmHg 56%
19:00 +14°C° 0 mm 2 m/s 560 mmHg 61%
20:00 +13°C° 0 mm 1 m/s 560 mmHg 66%
21:00 +12°C° 0 mm 1 m/s 560 mmHg 67%
22:00 +12°C° 0 mm 1 m/s 559 mmHg 68%
23:00 +11°C° 0 mm 1 m/s 559 mmHg 69%

23 Ianuarie, Sâmbătă

Timp Temperatura Precipitaţii Vânt Presiune Umiditate
00:00 +11°C° 0 mm 1 m/s 559 mmHg 69%
01:00 +11°C° 0 mm 1 m/s 559 mmHg 68%
02:00 +10°C° 0 mm 1 m/s 558 mmHg 68%
03:00 +10°C° 0 mm 1 m/s 558 mmHg 68%
04:00 +8°C° 0 mm 0 m/s 558 mmHg 67%
05:00 +8°C° 0 mm 0 m/s 558 mmHg 66%
06:00 +10°C° 0 mm 0 m/s 559 mmHg 58%
07:00 +12°C° 0 mm 0 m/s 561 mmHg 51%
08:00 +14°C° 0 mm 0 m/s 562 mmHg 43%
09:00 +16°C° 0 mm 1 m/s 563 mmHg 38%
10:00 +19°C° 0 mm 1 m/s 563 mmHg 33%
11:00 +20°C° 0 mm 1 m/s 564 mmHg 28%
12:00 +21°C° 0 mm 1 m/s 563 mmHg 27%
13:00 +20°C° 0 mm 2 m/s 563 mmHg 26%
14:00 +21°C° 0 mm 2 m/s 563 mmHg 25%
15:00 +19°C° 0 mm 2 m/s 562 mmHg 33%
16:00 +18°C° 0 mm 2 m/s 561 mmHg 41%
17:00 +16°C° 0 mm 2 m/s 560 mmHg 50%
18:00 +15°C° 0 mm 2 m/s 560 mmHg 53%
19:00 +14°C° 0 mm 1 m/s 560 mmHg 55%
20:00 +13°C° 0 mm 1 m/s 560 mmHg 58%
21:00 +12°C° 0 mm 1 m/s 559 mmHg 56%
22:00 +12°C° 0 mm 1 m/s 559 mmHg 54%
23:00 +10°C° 0 mm 0 m/s 559 mmHg 52%

24 Ianuarie, Duminică

Timp Temperatura Precipitaţii Vânt Presiune Umiditate
00:00 +10°C° 0 mm 0 m/s 558 mmHg 53%
01:00 +9°C° 0 mm 0 m/s 558 mmHg 55%
02:00 +10°C° 0 mm 1 m/s 557 mmHg 57%
03:00 +8°C° 0 mm 0 m/s 557 mmHg 57%
04:00 +8°C° 0 mm 0 m/s 557 mmHg 57%
05:00 +8°C° 0 mm 0 m/s 557 mmHg 57%
06:00 +10°C° 0 mm 0 m/s 559 mmHg 51%
07:00 +12°C° 0 mm 0 m/s 560 mmHg 45%
08:00 +14°C° 0 mm 0 m/s 561 mmHg 39%
09:00 +18°C° 0 mm 1 m/s 562 mmHg 34%
10:00 +19°C° 0 mm 1 m/s 563 mmHg 29%
11:00 +20°C° 0 mm 2 m/s 563 mmHg 25%
12:00 +20°C° 0 mm 2 m/s 563 mmHg 24%
13:00 +21°C° 0 mm 3 m/s 562 mmHg 23%
14:00 +21°C° 0 mm 3 m/s 562 mmHg 22%
15:00 +20°C° 0 mm 3 m/s 561 mmHg 29%
16:00 +18°C° 0 mm 3 m/s 560 mmHg 37%
17:00 +16°C° 0 mm 3 m/s 560 mmHg 44%
18:00 +16°C° 0 mm 3 m/s 560 mmHg 46%
19:00 +15°C° 0 mm 2 m/s 559 mmHg 48%
20:00 +14°C° 0 mm 1 m/s 559 mmHg 50%
21:00 +14°C° 0 mm 1 m/s 559 mmHg 53%
22:00 +13°C° 0 mm 1 m/s 559 mmHg 55%
23:00 +13°C° 0 mm 1 m/s 558 mmHg 58%

25 Ianuarie, Luni

Timp Temperatura Precipitaţii Vânt Presiune Umiditate
00:00 +12°C° 0 mm 1 m/s 558 mmHg 61%
01:00 +11°C° 0 mm 1 m/s 557 mmHg 64%
02:00 +10°C° 0 mm 2 m/s 557 mmHg 68%
03:00 +10°C° 0 mm 1 m/s 557 mmHg 70%
04:00 +10°C° 0 mm 1 m/s 557 mmHg 72%
05:00 +10°C° 0 mm 1 m/s 557 mmHg 75%
06:00 +11°C° 0 mm 1 m/s 558 mmHg 68%
07:00 +13°C° 0 mm 1 m/s 559 mmHg 62%
08:00 +14°C° 0 mm 1 m/s 560 mmHg 56%
09:00 +16°C° 0 mm 1 m/s 560 mmHg 49%
10:00 +17°C° 0 mm 2 m/s 561 mmHg 42%
11:00 +19°C° 0 mm 2 m/s 562 mmHg 34%
12:00 +19°C° 0 mm 3 m/s 561 mmHg 34%
13:00 +20°C° 0 mm 3 m/s 561 mmHg 33%
14:00 +20°C° 0 mm 4 m/s 560 mmHg 32%
15:00 +19°C° 0 mm 4 m/s 560 mmHg 38%
16:00 +18°C° 0 mm 3 m/s 559 mmHg 43%
17:00 +16°C° 0 mm 3 m/s 559 mmHg 49%
18:00 +16°C° 0 mm 3 m/s 559 mmHg 50%
19:00 +15°C° 0 mm 2 m/s 559 mmHg 52%
20:00 +14°C° 0 mm 1 m/s 559 mmHg 54%
21:00 +14°C° 0 mm 1 m/s 559 mmHg 55%
22:00 +13°C° 0 mm 1 m/s 558 mmHg 57%
23:00 +13°C° 0 mm 1 m/s 558 mmHg 58%
Arată mai mult

Formular de consimțământ

Meteoprog și furnizorii noștri de servicii pot stoca și accesa date personale, precum cookies, identificatori de dispozitiv sau alte tehnologii similare pe dispozitivul dumneavoastră și procesa astfel de date pentru a personaliza conținutul și reclamele, dar și pentru a oferi caracteristici de social media și pentru a analiza traficul.

  • Stocarea și/sau accesarea informațiilor pe dispozitivul dumneavoastră

    Cookies, identificatori de dispozitiv sau alte informații pot fi stocate sau accesate pe dispozitiv în scopurile indicate mai sus.

  • Reclame și conținut personalizat, evaluarea reclamelor și a conținutului, informații despre audiențe și dezvoltarea produselor

    Reclamele și conținutul pot fi personalizate pe baza unui profil. Pot fi adăugate date suplimentare pentru a personaliza mai bine reclamele și conținutul. Performanța reclamelor și conținutului poate fi măsurată. Pot fi obținute informații despre utilizatorii care au văzut reclamele și conținutul. Aceste date pot fi utilizate pentru a dezvolta sau îmbunătăți experiența utilizatorilor, sistemele și software-ul.

Dând clic pe ‘Sunt de acord’, permiteți utilizarea cookie-urilor menționate, a identificatorilor de dispozitiv, balizelor web sau altor tehnologii similare. Setările pot fi modificate din browser-ul dispozitivului dumneavoastră.

În anumite scopuri, interesele legitime pot prima asupra consimțământului. Puteți citi mai multe informații în acest sens în Politica privind Confidențialitatea Datelor și Cookie.